Location: *
(40.6819°N, 102.1661°W)
Time: 14:51:05
(UTC+00:00)

Daily predictions for brighter satellites

Satellite Brightness Start Highest point End
(mag) Time Altitude Azimuth Time Altitude Azimuth Time Altitude Azimuth
Cosmos 1943 3.9 12:04:05 29° W 12:05:30 33° WNW 12:10:34 10° N
Okean O Rocket 3.3 12:03:09 10° NNE 12:07:10 35° E 12:11:08 10° SSE
ADEOS Rocket 4.3 12:05:55 10° SE 12:12:00 48° ENE 12:18:44 10° N
Cosmos 1633 2.9 12:09:11 10° NNW 12:12:37 40° W 12:16:02 10° SSW
Cosmos 1484 Rocket 3.2 12:12:52 10° N 12:16:39 43° WNW 12:20:26 10° SW
Cosmos 1633 Rocket 3.3 12:14:57 10° N 12:19:20 71° E 12:23:42 10° SSE
Cosmos 1238 Rocket 3.4 12:15:20 10° NNW 12:20:53 60° W 12:25:26 10° S
COSMO-SKYMED 1 2.5 12:17:15 10° S 12:21:33 62° W 12:25:52 10° NNW
CZ-4B DEB 4.2 12:17:49 10° NNE 12:23:19 87° ESE 12:28:46 10° SSW
CZ-4B R/B 3.9 12:18:59 10° NNE 12:24:12 55° E 12:29:22 10° S
ALOS 2.2 12:19:39 10° N 12:24:16 61° WNW 12:28:51 10° SSW
Cosmos 1666 Rocket 3.4 12:21:29 10° N 12:25:54 79° W 12:30:15 10° S
Cosmos 1862 3.4 12:23:56 10° NNW 12:27:48 53° W 12:31:40 10° S
METEOR-M 4.1 12:22:52 10° N 12:28:10 65° WNW 12:33:26 10° SSW
NOAA 6 4.3 12:24:51 10° NNE 12:30:02 73° ESE 12:35:09 10° S
Cosmos 2173 Rocket 4.4 12:25:48 10° NNW 12:31:31 39° W 12:37:10 10° SSW
ATLAS 2AS CENTAUR R/B 3.8 12:25:28 10° NNW 12:32:46 46° NE 12:39:27 10° ESE
SL-8 R/B 4.4 12:29:26 10° SW 12:34:05 53° SE 12:38:47 10° ENE
Shenzhou-11 Module 1.8 12:36:15 20° WNW 12:37:49 60° N 12:40:25 10° E
H-2A R/B 3.9 12:37:29 10° NNW 12:40:46 20° WNW 12:44:04 10° WSW
Cosmos 1346 Rocket 3.2 12:37:26 10° N 12:41:20 66° E 12:45:11 10° SSE
ISS -3.8 12:39:54 12° WSW 12:42:57 70° NW 12:46:20 10° NE
Cosmos 1606 2.8 12:39:25 10° S 12:43:11 77° E 12:46:59 10° N
STARLINK-1129 4.1 12:50:49 10° NW 12:54:07 42° NNE 12:57:24 10° ESE
STARLINK-1170 3.2 12:52:18 10° NW 12:54:53 49° NE 12:57:27 10° ESE
Sich 1 4.1 12:53:50 10° NW 12:57:16 23° W 13:00:43 10° SW
STARLINK-1134 4.0 12:53:58 10° NW 12:57:16 45° NNE 13:00:35 10° ESE
Helios 1A Rocket 3.0 12:53:49 10° NNE 12:57:58 86° E 13:02:04 10° SSW
Cosmos 1850 Rocket 4.3 12:53:39 10° SW 12:58:46 48° WNW 13:03:52 10° N
STARLINK-1135 4.0 12:56:44 10° NW 13:00:05 48° NE 13:03:25 10° ESE
Cosmos 192 4.4 12:55:18 10° NNW 13:00:08 60° WSW 13:04:57 10° S
Cosmos 1782 4.4 12:57:02 10° SSE 13:00:50 42° E 13:04:40 10° NNE
SMAP 3.7 12:56:44 10° NNE 13:01:22 63° ESE 13:05:58 10° S
STARLINK-1141 3.9 12:59:26 10° NW 13:02:48 50° NE 13:06:09 10° ESE
DELTA 2 R/B (1) 3.7 12:57:28 10° W 13:03:04 81° S 13:08:39 10° E
Cosmos 1470 Rocket 3.6 13:01:41 10° NNW 13:06:07 64° W 13:10:32 10° S
Atlas Centaur 2 4.1 13:02:14 10° WSW 13:09:54 41° S 13:17:38 10° ESE
